Location: Unspecified
(40.7945°N, 111.1337°W)
Time: 07:28:02
(UTC-06:00)

Vanguard 1 - Pass Details

Date: 28 June 2019
Orbit: 654 x 3829 km, 34.2° (Epoch: 24 August)

Event Time Altitude Azimuth Distance (km) Brightness Sun altitude
Rises 06:03:52 0° 272° (W) 7,390 14.0 0.5°
Reaches altitude 10° 06:09:31 10° 270° (W) 5,971 13.5 1.4°
Maximum altitude 06:25:34 59° 197° (SSW) 2,214 11.7 4.1°
Drops below altitude 10° 06:34:10 10° 120° (ESE) 3,358 13.3 5.6°
Sets 06:36:28 0° 116° (ESE) 4,053 13.8 6.0°
